Simultaneous Nadir Overpasses (SNOs) Predictions

Prediction of SNOs between GOES-17 and NOAA-19 Satellite Orbit:

Table of predicted SNOs for the next 14.0 days since TLE Epoch: 5/21/2022
Index Date Time (GOES-17) GOES-17 Lat,Lon NOAA-19 Lat,Lon Distance(km) Time Diff (sec)
1 05/22/2022 05:06:31 -0.04,-137.17 -0.77,-140.20 346.69 80
2 05/23/2022 04:54:42 -0.04,-137.16 -0.07,-137.32 18.07 80
3 05/24/2022 04:40:12 -0.04,-137.15 0.62,-134.44 310.57 80
4 05/26/2022 17:00:49 0.03,-137.14 0.57,-139.31 248.79 80
5 05/27/2022 16:51:40 0.03,-137.13 -0.14,-136.43 79.61 80
6 05/28/2022 16:39:49 0.03,-137.12 -0.79,-133.54 407.79 80
7 05/30/2022 05:12:16 -0.02,-137.09 -1.01,-141.31 482.59 80
8 05/31/2022 05:00:26 -0.02,-137.07 -0.30,-138.43 155.01 80
9 06/01/2022 04:45:56 -0.01,-137.05 0.34,-135.54 172.47 80
10 06/02/2022 04:34:05 -0.01,-137.03 1.00,-132.65 499.77 80
11 06/03/2022 17:06:32 0.00,-137.01 0.80,-140.42 389.74 80
